1362182429990,0.806780
1362182489990,0.802038
1362182549990,0.803362
1362182609990,0.803292
1362182669990,0.804410
1362182729990,0.805493
1362182789990,0.808677
1362182849990,0.813078
1362182909990,0.806713
1362182969990,0.802201
1362183029990,0.802001
1362183089990,0.812107
1362183149990,0.810034
1362183209990,0.803126
1362183269990,0.804330
1362183329990,0.808489
1362183389990,0.807068
1362183449990,0.804756
1362183509990,0.803549
1362183569990,0.803481
1362183629990,0.796040
1362183689990,0.799558
1362183749990,0.800753
1362183809990,0.801433
1362183869990,0.799996
1362183929990,0.797780
1362183989990,0.803148
1362184049990,0.805020
1362184109990,0.805294
1362184169990,0.803930
1362184229990,0.803480
1362184289990,0.796818
1362184349990,0.806554
1362184409990,0.804499
1362184469990,0.804604
1362184529990,0.802459
1362184589990,0.797696
1362184649990,0.802720
1362184709990,0.804305
1362184769990,0.806867
1362184829990,0.802751
1362184889990,0.801455
1362184949990,0.806956
1362185009990,0.806296
1362185069990,0.801679
1362185129990,0.808629
1362185189990,0.800471
1362185249990,0.797364
1362185309990,0.802829
1362185369990,0.802661
1362185429990,0.801689
1362185489990,0.800739
1362185549990,0.799340
1362185609990,0.803103
1362185669990,0.805535
1362185729990,0.802567
1362185789990,0.802673
1362185849990,0.803960
1362185909990,0.799436
1362185969990,0.797198
1362186030003,0.790642
1362186090003,0.800298
1362186150003,0.800165
1362186210003,0.806240
1362186270003,0.802600
1362186330003,0.807381
1362186390003,0.806445
1362186450003,0.802128
1362186510003,0.801224
1362186570003,0.806340
1362186630003,0.801906
1362186690003,0.799390
1362186750003,0.804905
1362186810003,0.801154
1362186870003,0.807106
1362186930003,0.810662
1362186990003,0.804004
1362187050003,0.803575
1362187110003,0.808366
1362187170003,0.801583
1362187230003,0.805443
1362187290003,0.799692
1362187350003,0.801471
1362187410003,0.802905
1362187470003,0.807230
1362187530003,0.804489
1362187590003,0.801792
1362187650003,0.801332
1362187710003,0.804443
1362187770003,0.818797
1362187830003,0.803103
1362187890003,0.804629
1362187950003,0.809633
1362188010003,0.809993
1362188070003,0.810148
1362188130003,0.802758
1362188190003,0.808855
1362188250003,0.810345
1362188310003,0.800083
1362188370003,0.806638
1362188430003,0.811582
1362188490003,0.812838
1362188550003,0.805927
1362188610003,0.814250
1362188670003,0.809711
1362188730003,0.804279
1362188790003,0.806434
1362188850003,0.812481
1362188910003,0.809129
1362188970003,0.811564
1362189030003,0.807486
1362189090003,0.820936
1362189150003,0.813424
1362189210003,0.817922
1362189270003,0.802048
1362189330003,0.810831
1362189390003,0.811044
1362189450003,0.810984
1362189510003,0.807902
1362189570003,0.806125
1362189630016,0.810382
1362189690016,0.803532
1362189750016,0.810291
1362189810016,0.814197
1362189870016,0.808903
1362189930016,0.812470
1362189990016,0.811747
1362190050016,0.803301
1362190110016,0.806993
1362190170016,0.809493
1362190230016,0.816429
1362190290016,0.802782
1362190350016,0.805787
1362190410016,0.809627
1362190470016,0.806841
1362190530016,0.812740
1362190590016,0.816844
1362190650016,0.810703
1362190710016,0.803643
1362190770016,0.806553
1362190830016,0.801069
1362190890016,0.812994
1362190950016,0.807874
1362191010016,0.812614
1362191070016,0.811631
1362191130016,0.806218
1362191190016,0.817917
1362191250016,0.808120
1362191310016,0.805518
1362191370016,0.807319
1362191430016,0.810333
1362191490016,0.809134
1362191550016,0.802410
1362191610016,0.808041
1362191670016,0.806295
1362191730016,0.807141
1362191790016,0.802606
1362191850016,0.812423
1362191910016,0.806911
1362191970016,0.813143
1362192030016,0.807704
1362192090016,0.806255
1362192150016,0.811141
1362192210016,0.808544
1362192270016,0.809371
1362192330016,0.809234
1362192390016,0.803715
1362192450016,0.812372
1362192510016,0.815478
1362192570016,0.808332
1362192630016,0.811871
1362192690016,0.814340
1362192750016,0.812773
1362192810016,0.807627
1362192870016,0.815283
1362192930016,0.806072
1362192990016,0.812507
1362193050016,0.814825
1362193110016,0.807847
1362193170016,0.808620
1362193230029,0.818582
1362193290029,0.803682
1362193350029,0.808715
1362193410029,0.812672
1362193470029,0.811894
1362193530029,0.809504
1362193590029,0.814873
1362193650029,0.819850
1362193710029,0.810987
1362193770029,0.814804
1362193830029,0.808405
1362193890029,0.813028
1362193950029,0.815794
1362194010029,0.805942
1362194070029,0.818382
1362194130029,0.810355
1362194190029,0.810333
1362194250029,0.811532
1362194310029,0.809434
1362194370029,0.813795
1362194430029,0.808269
1362194490029,0.813671
1362194550029,0.808857
1362194610029,0.808807
1362194670029,0.812443
1362194730029,0.809709
1362194790029,0.803673
1362194850029,0.814694
1362194910029,0.807725
1362194970029,0.811177
1362195030029,0.808352
1362195090029,0.813882
1362195150029,0.816657
1362195210029,0.816762
1362195270029,0.816195
1362195330029,0.822635
1362195390029,0.823580
1362195450029,0.812727
1362195510029,0.815445
1362195570029,0.819920
1362195630029,0.818912
1362195690029,0.823673
1362195750029,0.813255
1362195810029,0.817384
1362195870029,0.811567
1362195930029,0.818139
1362195990029,0.818839
1362196050029,0.818043
1362196110029,0.813643
1362196170029,0.818099
1362196230029,0.813245
1362196290029,0.815486
1362196350029,0.815366
1362196410029,0.814646
1362196470029,0.823130
1362196530029,0.817978
1362196590029,0.820355
1362196650029,0.812572
1362196710029,0.811907
1362196770029,0.816040
1362196830042,0.819702
1362196890042,0.817628
1362196950042,0.822956
1362197010042,0.816347
1362197070042,0.822707
1362197130042,0.826282
1362197190042,0.819998
1362197250042,0.821114
1362197310042,0.820111
1362197370042,0.817485
1362197430042,0.817952
1362197490042,0.825385
1362197550042,0.820499
1362197610042,0.825337
1362197670042,0.819090
1362197730042,0.823407
1362197790042,0.817278
1362197850042,0.819565
1362197910042,0.818783
1362197970042,0.813253
1362198030042,0.819204
1362198090042,0.815390
1362198150042,0.813983
1362198210042,0.814756
1362198270042,0.816237
1362198330042,0.810831
1362198390042,0.822096
1362198450042,0.814206
1362198510042,0.810672
1362198570042,0.812107
1362198630042,0.811944
1362198690042,0.805997
1362198750042,0.815922
1362198810042,0.809858
1362198870042,0.813718
1362198930042,0.814542
1362198990042,0.810599
1362199050042,0.817296
1362199110042,0.810192
1362199170042,0.813240
1362199230042,0.811045
1362199290042,0.812196
1362199350042,0.818946
1362199410042,0.813712
1362199470042,0.815903
1362199530042,0.817737
1362199590042,0.816219
1362199650042,0.820738
1362199710042,0.815830
1362199770042,0.825527
1362199830042,0.816153
1362199890042,0.816147
1362199950042,0.821078
1362200010042,0.816012
1362200070042,0.812705
1362200130042,0.816919
1362200190042,0.816033
1362200250042,0.810688
1362200310042,0.816250
1362200370042,0.814845
1362200430054,0.819234
1362200490054,0.815841
1362200550054,0.821961
1362200610054,0.816471
1362200670054,0.817977
1362200730054,0.820924
1362200790054,0.815691
1362200850054,0.813718
1362200910054,0.815318
1362200970054,0.811563
1362201030054,0.816387
1362201090054,0.816429
1362201150054,0.815532
1362201210054,0.814226
1362201270054,0.824540
1362201330054,0.814583
1362201390054,0.808353
1362201450054,0.813161
1362201510054,0.816023
1362201570054,0.816344
1362201630054,0.822599
1362201690054,0.810453
1362201750054,0.811128
1362201810054,0.810644
1362201870054,0.814818
1362201930054,0.811988
1362201990054,0.815814
1362202050054,0.815616
1362202110054,0.814747
1362202170054,0.817869
1362202230054,0.817411
1362202290054,0.813072
1362202350054,0.818409
1362202410054,0.812613
1362202470054,0.813017
1362202530054,0.823167
1362202590054,0.809188
1362202650054,0.814905
1362202710054,0.821518
1362202770054,0.815448
1362202830054,0.822575
1362202890054,0.815208
1362202950054,0.814737
1362203010054,0.813748
1362203070054,0.817607
1362203130054,0.816330
1362203190054,0.817616
1362203250054,0.811896
1362203310054,0.811766
1362203370054,0.812471
1362203430054,0.813523
1362203490054,0.816609
1362203550054,0.816418
1362203610054,0.819048
1362203670054,0.818566
1362203730054,0.821956
1362203790054,0.818749
1362203850054,0.816304
1362203910054,0.816718
1362203970054,0.822994
1362204030067,0.809771
1362204090067,0.819873
1362204150067,0.816518
1362204210067,0.816239
1362204270067,0.816034
1362204330067,0.817448
1362204390067,0.819393
1362204450067,0.814560
1362204510067,0.816027
1362204570067,0.819159
1362204630067,0.817444
1362204690067,0.817598
1362204750067,0.815510
1362204810067,0.815518
1362204870067,0.813550
1362204930067,0.815876
1362204990067,0.818363
1362205050067,0.814229
1362205110067,0.818459
1362205170067,0.820714
1362205230067,0.817419
1362205290067,0.818554
1362205350067,0.810439
1362205410067,0.823243
1362205470067,0.820637
1362205530067,0.817066
1362205590067,0.803141
1362205650067,0.820560
1362205710067,0.816731
1362205770067,0.816059
1362205830067,0.818154
1362205890067,0.813525
1362205950067,0.817878
1362206010067,0.815835
1362206070067,0.813145
1362206130067,0.814982
1362206190067,0.814202
1362206250067,0.813112
1362206310067,0.814882
1362206370067,0.817409
1362206430067,0.821319
1362206490067,0.815906
1362206550067,0.809868
1362206610067,0.813219
1362206670067,0.814921
1362206730067,0.816688
1362206790067,0.815888
1362206850067,0.813187
1362206910067,0.818836
1362206970067,0.822537
1362207030067,0.817802
1362207090067,0.820434
1362207150067,0.820259
1362207210067,0.814238
1362207270067,0.816687
1362207330067,0.819515
1362207390067,0.823732
1362207450067,0.814039
1362207510067,0.815883
1362207570067,0.814286
1362207630080,0.818349
1362207690080,0.816958
1362207750080,0.814698
1362207810080,0.815158
1362207870080,0.811609
1362207930080,0.818733
1362209310080,0.812251
1362209370080,0.817366
1362209430080,0.815109
1362209490080,0.818570
1362209550080,0.816637
1362209610080,0.817932
1362209670080,0.818366
1362209730080,0.809598
1362209790080,0.812087
1362209850080,0.805985
1362209910080,0.813804
1362209970080,0.814189
1362210030080,0.813813
1362210090080,0.820405
1362210150080,0.823543
1362210210080,0.816269
1362210270080,0.823685
1362210330080,0.817285
1362210390080,0.822815
1362210450080,0.818617
1362210510080,0.818766
1362210570080,0.824315
1362210630080,0.820468
1362210690080,0.817174
1362210750080,0.819686
1362210810080,0.814678
1362210870080,0.816146
1362210930080,0.817129
1362210990080,0.817101
1362211050080,0.820668
1362211110080,0.816525
1362211170080,0.815377
1362211230093,0.829484
1362211290093,0.819760
1362211350093,0.818434
1362211410093,0.823357
1362211470093,0.826778
1362211530093,0.818356
1362211590093,0.821337
1362211650093,0.816045
1362211710093,0.827360
1362211770093,0.815563
1362211830093,0.822446
1362211890093,0.829609
1362211950093,0.821447
1362212010093,0.825432
1362212070093,0.823219
1362212130093,0.822952
1362212190093,0.829134
1362212250093,0.827760
1362212310093,0.828463
1362212370093,0.827214
1362212430093,0.825441
1362212490093,0.821461
1362212550093,0.824452
1362212610093,0.823073
1362212670093,0.820318
1362212730093,0.818137
1362212790093,0.821410
1362212850093,0.821706
1362212910093,0.817776
1362212970093,0.823728
1362213030093,0.825265
1362213090093,0.823972
1362213150093,0.821110
1362213210093,0.824918
1362213270093,0.819381
1362213330093,0.823400
1362213390093,0.821548
1362213450093,0.823273
1362213510093,0.816715
1362213570093,0.818809
1362213630093,0.822985
1362213690093,0.822646
1362213750093,0.818275
1362213810093,0.819785
1362213870093,0.819305
1362213930093,0.825207
1362213990093,0.821298
1362214050093,0.825567
1362214110093,0.826225
1362214170093,0.823948
1362214230093,0.827644
1362214290093,0.817617
1362214350093,0.829773
1362214410093,0.821766
1362214470093,0.818027
1362214530093,0.818475
1362214590093,0.824957
1362214650093,0.825408
1362214710093,0.824224
1362214770093,0.823588
1362214830106,0.823777
1362214890106,0.814375
1362214950106,0.819626
1362215010106,0.823499
1362215070106,0.822593
1362215130106,0.823043
1362215190106,0.821849
1362215250106,0.816413
1362215310106,0.822271
1362215370106,0.825776
1362215430106,0.819718
1362215490106,0.826426
1362215550106,0.818250
1362215610106,0.822841
1362215670106,0.825047
1362215730106,0.818162
1362215790106,0.817163
1362215850106,0.817455
1362215910106,0.812997
1362215970106,0.815719
1362216030106,0.817002
1362216090106,0.824004
1362216150106,0.826159
1362216210106,0.817607
1362216270106,0.813806
1362216330106,0.822571
1362216390106,0.822756
1362216450106,0.815982
1362216510106,0.825970
1362216570106,0.823197
1362216630106,0.823539
1362216690106,0.821700
1362216750106,0.822074
1362216810106,0.820831
1362216870106,0.813771
1362216930106,0.826408
1362216990106,0.818196
1362217050106,0.820840
1362217110106,0.819578
1362217170106,0.818457
1362217230106,0.820229
1362217290106,0.818500
1362217350106,0.820921
1362217410106,0.819693
1362217470106,0.819835
1362217530106,0.822600
1362217590106,0.818434
1362217650106,0.814441
1362217710106,0.813214
1362217770106,0.823702
1362217830106,0.821506
1362217890106,0.821292
1362217950106,0.829229
1362218010106,0.817731
1362218070106,0.824228
1362218130106,0.819705
1362218190106,0.818838
1362218250106,0.822493
1362218310106,0.820651
1362218370106,0.818578
1362218430119,0.824901
1362218490119,0.823404
1362218550119,0.819508
1362218610119,0.819463
1362218670119,0.820927
1362218730119,0.822703
1362218790119,0.817194
1362218850119,0.818366
1362218910119,0.817831
1362218970119,0.819823
1362219030119,0.818317
1362219090119,0.821197
1362219150119,0.817555
1362219210119,0.813746
1362219270119,0.811264
1362219330119,0.814861
1362219390119,0.816352
1362219450119,0.818037
1362219510119,0.818227
1362219570119,0.825289
1362219630119,0.820983
1362219690119,0.821331
1362219750119,0.817832
1362219810119,0.822010
1362219870119,0.819593
1362219930119,0.822697
1362219990119,0.823179
1362220050119,0.818957
1362220110119,0.819953
1362220170119,0.823041
1362220230119,0.819001
1362220290119,0.820762
1362220350119,0.820903
1362220410119,0.819038
1362220470119,0.828726
1362220530119,0.829340
1362220590119,0.820917
1362220650119,0.818819
1362220710119,0.828712
1362220770119,0.828967
1362220830119,0.817609
1362220890119,0.822686
1362220950119,0.820136
1362221010119,0.823765
1362221070119,0.823846
1362221130119,0.818316
1362221190119,0.828100
1362221250119,0.823787
1362221310119,0.831423
1362221370119,0.828623
1362221430119,0.825187
1362221490119,0.819159
1362221550119,0.820897
1362221610119,0.828489
1362221670119,0.825196
1362221730119,0.819289
1362221790119,0.816394
1362221850119,0.822161
1362221910119,0.818741
1362221970119,0.826608
1362222030131,0.821695
1362222090131,0.823400
1362222150131,0.820150
1362222210131,0.822737
1362222270131,0.825403
1362222330131,0.823729
1362222390131,0.814301
1362222450131,0.822018
1362222510131,0.817743
1362222570131,0.824490
1362222630131,0.827749
1362222690131,0.823283
1362222750131,0.818894
1362222810131,0.813123
1362222870131,0.817589
1362222930131,0.823051
1362222990131,0.818010
1362223050131,0.818960
1362223110131,0.824059
1362223170131,0.821813
1362223230131,0.819747
1362223290131,0.819376
1362223350131,0.817625
1362223410131,0.819821
1362223470131,0.813767
1362223530131,0.821106
1362223590131,0.814334
1362223650131,0.819534
1362223710131,0.815429
1362223770131,0.818560
1362223830131,0.815805
1362223890131,0.821873
1362223950131,0.820514
1362224010131,0.824926
1362224070131,0.820391
1362224130131,0.816023
1362224190131,0.821346
1362224250131,0.815520
1362224310131,0.816331
1362224370131,0.817774
1362224430131,0.824349
1362224490131,0.829991
1362224550131,0.819980
1362224610131,0.826659
1362224670131,0.815950
1362224730131,0.827195
1362224790131,0.832514
1362224850131,0.821439
1362224910131,0.827226
1362224970131,0.820729
1362225030131,0.822800
1362225090131,0.828609
1362225150131,0.834699
1362225210131,0.834270
1362225270131,0.837306
1362225330131,0.832402
1362225390131,0.841359
1362225450131,0.829336
1362225510131,0.838815
1362225570131,0.833768
1362225630144,0.835472
1362225690144,0.834853
1362225750144,0.839979
1362225810144,0.837752
1362225870144,0.839629
1362225930144,0.843985
1362225990144,0.840704
1362226050144,0.837678
1362226110144,0.834939
1362226170144,0.841142
1362226230144,0.842578
1362226290144,0.843089
1362226350144,0.835384
1362226410144,0.836048
1362226470144,0.830832
1362226530144,0.832415
1362226590144,0.832117
1362226650144,0.836201
1362226710144,0.837014
1362226770144,0.827225
1362226830144,0.836387
1362226890144,0.822460
1362226950144,0.825248
1362227010144,0.824157
1362227070144,0.819136
1362227130144,0.828375
1362227190144,0.829404
1362227250144,0.824363
1362227310144,0.824206
1362227370144,0.822773
1362227430144,0.819991
1362227490144,0.814789
1362227550144,0.815095
1362227610144,0.819285
1362227670144,0.821684
1362227730144,0.818457
1362227790144,0.813915
1362227850144,0.819773
1362227910144,0.826686
1362227970144,0.823130
1362228030144,0.820721
1362228090144,0.819774
1362228150144,0.820180
1362228210144,0.818158
1362228270144,0.818501
1362228330144,0.818184
1362228390144,0.820962
1362228450144,0.818164
1362228510144,0.809773
1362228570144,0.811159
1362228630144,0.816583
1362228690144,0.816827
1362228750144,0.817223
1362228810144,0.817171
1362228870144,0.819738
1362228930144,0.818845
1362228990144,0.819271
1362229050144,0.819790
1362229110144,0.817509
1362229170144,0.819398
1362229230157,0.815472
1362229290157,0.816774
1362229350157,0.825287
1362229410157,0.814973
1362229470157,0.821527
1362229530157,0.820188
1362229590157,0.817353
1362229650157,0.814378
1362229710157,0.823202
1362229770157,0.818825
1362229830157,0.819744
1362229890157,0.819460
1362229950157,0.821587
1362230010157,0.819700
1362230070157,0.809773
1362230130157,0.825414
1362230190157,0.822366
1362230250157,0.822970
1362230310157,0.824020
1362230370157,0.823697
1362230430157,0.831409
1362230490157,0.836952
1362230550157,0.828648
1362230610157,0.834549
1362230670157,0.827203
1362230730157,0.826782
1362230790157,0.823764
1362230850157,0.824810
1362230910157,0.825534
1362230970157,0.824719
1362231030157,0.823334
1362231090157,0.830397
1362231150157,0.823791
1362231210157,0.820477
1362231270157,0.823177
1362231330157,0.819467
1362231390157,0.818135
1362231450157,0.822453
1362231510157,0.822413
1362231570157,0.824441
1362231630157,0.825389
1362231690157,0.826571
1362231750157,0.826380
1362231810157,0.831653
1362231870157,0.824055
1362231930157,0.830530
1362231990157,0.820469
1362232050157,0.816524
1362232110157,0.823538
1362232170157,0.822563
1362232230157,0.822511
1362232290157,0.822308
1362232350157,0.829114
1362232410157,0.838019
1362232470157,0.828365
1362232530157,0.833832
1362232590157,0.826113
1362232650157,0.838376
1362232710157,0.833131
1362232770157,0.832356
1362232830169,0.830470
1362232890169,0.837894
1362232950169,0.838276
1362233010169,0.844370
1362233070169,0.842653
1362233130169,0.843985
1362233190169,0.847721
1362233250169,0.850402
1362233310169,0.849379
1362233370169,0.850052
1362233430169,0.853870
1362233490169,0.849047
1362233550169,0.854236
1362233610169,0.852996
1362233670169,0.849538
1362233730169,0.844418
1362233790169,0.850225
1362233850169,0.858591
1362233910169,0.849865
1362233970169,0.846585
1362234030169,0.842815
1362234090169,0.846593
1362234150169,0.848879
1362234210169,0.838354
1362234270169,0.850095
1362234330169,0.835882
1362234390169,0.850366
1362234450169,0.850408
1362234510169,0.845293
1362234570169,0.843791
1362234630169,0.843749
1362234690169,0.841838
1362234750169,0.840772
1362234810169,0.836745
1362234870169,0.841841
1362234930169,0.836748
1362234990169,0.831734
1362235050169,0.837374
1362235110169,0.839893
1362235170169,0.836502
1362235230169,0.829833
1362235290169,0.836717
1362235350169,0.833998
1362235410169,0.824791
1362235470169,0.831998
1362235530169,0.827683
1362235590169,0.834572
1362235650169,0.828521
1362235710169,0.827670
1362235770169,0.839248
1362235830169,0.823523
1362235890169,0.828896
1362235950169,0.823297
1362236010169,0.823957
1362236070169,0.826403
1362236130169,0.826270
1362236190169,0.829579
1362236250169,0.832376
1362236310169,0.831874
1362236370169,0.826723
1362236430182,0.832209
1362236490182,0.835428
1362236550182,0.828987
1362236610182,0.838315
1362236670182,0.845805
1362236730182,0.844774
1362236790182,0.852688
1362236850182,0.846740
1362236910182,0.845996
1362236970182,0.857966
1362237030182,0.857688
1362237090182,0.862185
1362237150182,0.869233
1362237210182,0.870935
1362237270182,0.874416
1362237330182,0.880588
1362237390182,0.884478
1362237450182,0.883383
1362237510182,0.884482
1362237570182,0.888109
1362237630182,0.891892
1362237690182,0.889725
1362237750182,0.883346
1362237810182,0.882691
1362237870182,0.885443
1362237930182,0.886501
1362237990182,0.894094
1362238050182,0.894051
1362238110182,0.889732
1362238170182,0.885204
1362238230182,0.886773
1362238290182,0.884175
1362238350182,0.888227
1362238410182,0.876668
1362238470182,0.876469
1362238530182,0.870695
1362238590182,0.871689
1362238650182,0.859682
1362238710182,0.869428
1362238770182,0.863816
1362238830182,0.858980
1362238890182,0.851234
1362238950182,0.853687
1362239010182,0.854406
1362239070182,0.855950
1362239130182,0.845040
1362239190182,0.845439
1362239250182,0.840913
1362239310182,0.844438
1362239370182,0.846752
1362239430182,0.834269
1362239490182,0.844582
1362239550182,0.834034
1362239610182,0.837171
1362239670182,0.830891
1362239730182,0.829140
1362239790182,0.840316
1362239850182,0.838908
1362239910182,0.847086
1362239970182,0.839405
1362240030194,0.846805
1362240090194,0.844449
1362240150194,0.843290
1362240210194,0.835371
1362240270194,0.838691
1362240330194,0.842119
1362240390194,0.838261
1362240450194,0.830148
1362240510194,0.836576
1362240570194,0.834355
1362240630194,0.835830
1362240690194,0.839161
1362240750194,0.831441
1362240810194,0.838863
1362240870194,0.835568
1362240930194,0.831369
1362240990194,0.834269
1362241050194,0.831524
1362241110194,0.831536
1362241170194,0.833713
1362241230194,0.829313
1362241290194,0.829898
1362241350194,0.824563
1362241410194,0.834905
1362241470194,0.825265
1362241530194,0.823172
1362241590194,0.831987
1362241650194,0.818743
1362241710194,0.824587
1362241770194,0.827327
1362241830194,0.820789
1362241890194,0.820604
1362241950194,0.825187
1362242010194,0.816697
1362242070194,0.819849
1362242130194,0.821257
1362242190194,0.813890
1362242250194,0.818562
1362242310194,0.823442
1362242370194,0.820704
1362242430194,0.815916
1362242490194,0.815993
1362242550194,0.810155
1362242610194,0.822022
1362242670194,0.815218
1362242730194,0.819391
1362242790194,0.815835
1362242850194,0.820090
1362242910194,0.819443
1362242970194,0.810355
1362243030194,0.816295
1362243090194,0.814276
1362243150194,0.821509
1362243210194,0.824635
1362243270194,0.815614
1362243330194,0.818019
1362243390194,0.813967
1362243450194,0.815449
1362243510194,0.813849
1362243570194,0.813066
1362243630207,0.812920
1362243690207,0.814521
1362243750207,0.823466
1362243810207,0.820651
1362243870207,0.813385
1362243930207,0.814285
1362243990207,0.816629
1362244050207,0.823841
1362244110207,0.822548
1362244170207,0.815053
1362244230207,0.823851
1362244290207,0.814273
1362244350207,0.820555
1362244410207,0.821316
1362244470207,0.820337
1362244530207,0.818610
1362244590207,0.822626
1362244650207,0.817321
1362244710207,0.819155
1362244770207,0.819593
1362244830207,0.820659
1362244890207,0.822519
1362244950207,0.819260
1362245010207,0.814789
1362245070207,0.819195
1362245130207,0.814381
1362245190207,0.817870
1362245250207,0.821606
1362245310207,0.820768
1362245370207,0.818333
1362245430207,0.817951
1362245490207,0.811694
1362245550207,0.815124
1362245610207,0.819772
1362245670207,0.820833
1362245730207,0.816566
1362245790207,0.824369
1362245850207,0.814236
1362245910207,0.822236
1362245970207,0.819001
1362246030207,0.816114
1362246090207,0.822139
1362246150207,0.820757
1362246210207,0.819323
1362246270207,0.821508